カタログに戻る

USA 81

運用中軍事PO
NORAD 21949·PAYLOAD·🇺🇸 United States

打ち上げ Apr 25, 1992 から Vandenberg Space Force Base

Loading…

次のパス (今後24時間)

TLE

最新Source: Space-Track

元期: Sep 14, 2026, 14:53 UTC

1 21949U 92023A   26257.62036637  .00000134  00000-0  42096-4 0  9999
2 21949  85.0105  22.3716 0002424 108.4323 251.7133 14.32417505121839

AllMySatでUSA 81をリアルタイム追跡

Download on the App Store